Theta_e
347 340 333 328 329 329 338 341 342 341 340 338 336 335 333 332 331 330 330 330 329 326 324 319 319 318 318 317 315 316 316 317 317 317 317 319 319 319 316 315 316 315 314
338 335 333 328 326 325 335 340 339 339 338 338 336 335 334 333 332 330 328 327 327 327 325 322 319 319 319 318 317 315 315 316 317 317 315 318 319 316 316 318 313 310 310
331 330 329 327 324 332 340 343 341 339 338 337 335 334 333 333 332 332 331 330 328 325 326 321 320 321 320 319 317 317 316 316 317 316 316 316 315 314 315 309 309 307 307
331 334 329 329 332 339 340 338 336 335 334 334 333 333 332 332 331 331 331 330 329 327 324 322 320 320 319 319 319 318 317 317 315 315 316 315 314 313 310 307 306 307 310
338 338 336 337 337 337 335 333 333 333 331 331 331 330 331 331 330 329 328 328 328 327 326 324 323 320 319 319 319 319 317 315 315 315 314 314 313 310 310 309 309 310 311
329 331 333 333 333 333 332 332 332 330 329 329 328 327 327 327 325 319 320 324 324 325 326 326 325 323 321 320 319 319 318 315 315 315 314 314 313 314 309 310 309 312 309
330 329 330 329 329 329 328 327 326 326 325 323 322 321 321 322 320 317 314 319 321 322 325 324 325 324 324 324 323 321 319 318 317 315 315 314 314 311 311 311 311 311 309
325 325 325 324 324 324 324 324 324 322 321 320 319 319 320 319 318 314 312 311 316 320 320 324 324 322 319 317 319 321 321 320 317 315 315 314 313 312 312 310 311 311 309
324 323 322 322 322 323 322 322 321 321 319 320 320 320 320 319 317 315 312 315 315 317 317 318 322 321 319 318 317 317 320 319 318 317 315 314 313 312 311 312 312 308 308
321 321 320 320 320 318 318 318 318 316 313 312 312 313 315 315 315 317 315 314 314 314 314 318 316 314 313 313 315 317 319 318 316 315 313 312 312 311 312 311 310 308 309
317 316 315 316 316 316 316 315 314 312 312 312 312 313 313 312 313 314 314 314 313 314 311 312 314 316 314 313 314 316 317 317 316 313 311 311 310 310 310 311 312 311 310
314 313 313 313 313 312 314 314 313 312 312 311 311 311 310 311 312 312 312 313 313 313 314 312 313 314 314 313 314 315 315 315 314 311 311 311 311 311 311 311 312 310 309
311 312 311 312 311 311 312 312 312 311 311 311 310 311 311 311 312 312 313 312 311 312 314 313 312 313 312 312 313 313 312 312 311 311 311 311 311 311 312 311 311 310 309
312 312 312 312 312 312 312 311 311 311 311 310 310 310 310 311 311 312 311 311 310 311 313 314 314 312 312 312 312 310 310 310 310 310 310 310 311 311 311 310 310 309 308
312 312 312 312 311 311 311 311 311 311 311 311 310 310 310 310 311 309 308 308 308 308 308 309 313 313 312 310 309 308 308 308 309 310 310 310 311 310 311 310 308 307 307
313 312 311 311 311 311 312 312 312 311 311 311 310 310 311 309 309 309 309 309 308 308 309 311 313 314 312 311 310 309 308 308 307 307 309 311 311 311 309 308 308 307 308
315 314 313 312 311 312 312 312 312 311 310 311 311 311 311 309 308 309 309 308 308 309 308 312 312 312 311 310 309 309 309 307 307 310 310 310 310 310 309 308 308 307 307
314 314 313 312 312 311 311 310 311 311 312 312 312 312 311 310 308 308 307 307 310 309 311 308 307 308 309 309 307 307 308 309 309 309 308 307 306 306 306 305 306 306 307
313 313 313 311 310 310 309 310 310 311 312 311 311 310 310 309 309 308 308 308 307 307 307 306 306 305 306 306 307 306 307 307 307 306 306 306 306 305 305 305 305 305 305
312 311 309 309 309 309 309 310 311 310 310 310 309 308 308 307 310 306 304 304 304 305 306 306 306 306 305 305 306 306 305 305 305 305 305 305 304 304 303 303 303 303 303
309 309 308 308 308 309 310 310 308 308 307 306 306 306 306 306 303 302 302 302 303 304 305 305 304 304 304 304 304 304 303 304 304 303 302 301 301 301 301 301 300 301 301
308 307 308 309 310 309 307 307 307 306 306 305 305 305 304 303 303 302 305 304 303 303 302 302 302 301 301 301 301 302 302 302 301 300 300 301 300 299 299 298 299 299 299
307 308 308 309 309 306 306 305 305 305 304 303 302 302 303 304 305 305 303 303 302 302 301 301 300 299 299 299 299 300 300 300 300 299 300 299 298 298 298 298 298 299 299
308 309 307 309 307 306 306 306 305 304 303 304 303 304 305 307 306 304 302 302 302 301 301 300 299 299 299 300 300 300 299 298 298 299 299 299 299 299 299 300 301 301 301
309 308 306 308 308 307 307 307 307 306 306 306 307 307 305 305 303 303 302 302 302 301 301 300 298 298 298 298 297 296 295 296 298 299 300 300 300 300 301 301 301 301 301
310 308 308 309 309 308 308 307 307 306 307 306 305 304 304 303 303 303 302 302 302 301 300 299 298 297 297 295 294 294 295 296 297 298 300 300 301 301 301 301 302 302 302
Wind_Speed
8 14 14 16 14 26 28 18 15 12 13 14 15 14 14 15 15 17 18 17 17 18 18 17 19 18 18 15 17 17 16 15 14 20 10 10 13 13 13 10 12 11 12
11 7 8 15 9 33 31 24 16 14 14 16 16 16 17 17 16 17 21 22 20 19 20 20 20 19 21 21 17 20 19 17 14 14 15 18 13 15 15 14 13 9 8
8 4 19 15 25 29 23 19 16 13 14 16 16 16 16 15 15 14 18 20 21 23 21 23 22 21 22 21 21 21 21 20 18 17 13 13 12 13 12 15 12 12 11
4 5 5 7 20 19 14 12 11 12 14 14 16 17 16 15 15 13 15 16 17 20 23 26 28 27 27 23 23 25 23 20 20 19 20 15 14 18 18 16 14 15 14
1 3 6 8 9 9 9 9 9 8 10 11 13 14 15 15 15 13 14 15 16 17 19 21 24 31 31 30 27 28 23 26 24 22 21 20 19 16 21 18 17 16 15
2 1 1 3 5 6 6 7 7 8 10 10 12 11 11 11 8 11 11 13 16 18 20 19 22 24 28 31 31 33 31 29 27 26 26 21 25 23 20 19 16 16 13
4 4 4 5 5 6 7 7 7 8 7 9 10 12 11 11 13 13 13 13 14 17 20 22 20 20 19 21 24 28 32 35 36 32 27 28 22 26 24 19 18 16 12
5 5 7 8 7 6 4 7 11 11 11 11 12 14 14 17 16 17 19 20 17 18 18 20 20 22 24 27 25 23 25 31 33 39 33 28 29 26 23 26 19 16 12
8 8 8 7 7 9 12 14 12 13 14 15 16 19 17 16 19 20 20 17 19 20 21 20 15 15 17 22 27 28 23 25 25 27 34 30 26 21 19 18 14 12 9
7 7 7 7 9 10 10 11 10 11 15 17 19 20 20 20 20 21 21 16 19 19 23 24 20 24 20 14 22 24 21 25 23 23 26 25 22 22 22 20 18 19 20
5 7 8 8 8 9 10 9 12 14 14 17 20 21 21 18 19 20 22 20 22 21 24 24 20 22 20 19 22 27 24 20 23 21 25 22 19 21 22 21 20 19 18
6 7 8 8 10 11 11 14 15 17 18 20 20 21 20 19 18 17 20 22 22 19 20 24 22 20 21 22 22 24 24 21 19 20 20 22 24 24 24 24 20 18 12
6 7 9 10 12 12 13 15 19 18 20 22 23 24 23 21 22 20 12 17 22 21 20 16 22 24 22 20 19 19 17 20 20 21 17 17 24 24 21 18 16 16 14
12 13 13 14 14 15 16 21 21 23 22 24 24 25 27 24 22 19 20 22 22 21 20 18 16 16 16 16 13 11 19 17 17 13 18 21 19 15 14 17 17 16 17
16 17 17 20 19 19 20 19 24 23 23 25 23 25 27 27 19 15 17 18 20 20 24 18 15 11 12 11 8 12 14 15 15 14 13 14 15 16 17 16 15 17 18
18 20 20 21 24 22 21 22 23 27 26 24 24 24 22 21 20 19 20 25 22 18 15 13 14 12 10 9 10 13 15 14 12 12 14 14 13 14 13 14 15 15 13
15 16 19 19 21 19 20 22 26 28 26 24 14 13 14 14 15 23 27 24 18 12 9 11 13 11 7 8 10 11 10 13 12 11 10 10 13 11 9 11 13 15 15
12 12 15 17 18 20 22 25 24 21 18 20 16 12 14 16 19 19 17 13 11 4 6 10 13 14 9 8 10 11 8 7 8 8 4 4 5 6 9 10 9 5 6
12 15 15 20 23 24 22 18 20 20 21 21 19 17 11 14 11 9 11 8 12 12 13 14 11 14 12 6 6 6 5 5 5 5 4 3 3 5 6 7 6 6 5
15 14 15 18 19 18 16 18 20 21 20 18 15 15 13 12 8 13 17 16 15 12 8 6 6 6 6 6 7 8 7 5 4 3 2 1 1 3 4 3 6 6 9
14 13 11 14 13 12 15 16 17 18 16 12 8 8 9 7 17 21 21 15 8 7 8 10 12 11 10 8 7 6 4 3 2 3 2 1 0 1 1 3 7 3 3
11 11 12 12 12 12 15 14 14 13 11 8 7 9 19 21 17 15 7 11 14 13 13 12 12 11 10 9 8 6 5 4 4 4 4 4 7 8 9 8 8 10 11
5 4 7 8 10 15 14 14 16 17 18 19 19 19 18 16 11 8 12 14 13 14 13 14 13 12 11 9 9 8 7 7 6 6 8 10 10 11 10 9 8 7 10
3 2 12 8 11 11 13 15 19 23 24 23 21 17 9 7 7 10 11 10 11 12 13 14 15 14 11 10 9 9 9 10 11 12 12 12 12 11 10 8 9 8 8
1 14 11 7 5 5 6 3 8 9 8 7 2 5 7 9 10 10 9 10 9 10 13 14 14 13 13 13 13 14 16 15 12 12 11 12 11 9 8 7 7 8 9
10 10 8 5 0 5 6 7 8 7 6 5 8 8 7 8 8 7 7 7 8 9 11 13 14 13 12 12 14 15 14 11 11 12 9 6 3 2 3 5 5 6 6
Wind_Direction
98 82 42 1 7 329 290 268 256 260 254 253 251 242 238 240 233 235 240 250 239 241 238 236 233 232 234 232 233 235 241 238 247 254 279 198 217 227 232 232 244 253 266
129 131 82 342 305 293 279 273 271 267 266 258 257 252 250 247 245 238 240 242 242 244 243 238 236 236 233 229 229 231 233 239 251 253 254 231 208 228 235 235 233 217 215
177 247 260 260 250 267 271 277 279 277 273 265 261 255 259 260 257 246 248 247 248 245 242 236 240 237 234 235 232 239 234 235 235 241 259 252 237 251 221 222 215 217 235
226 232 223 271 269 274 273 278 287 289 285 281 277 274 269 268 266 261 256 255 253 251 248 245 245 237 234 232 234 237 233 230 231 236 239 235 220 233 228 218 218 225 241
106 263 274 273 272 274 286 299 302 292 295 299 297 294 288 284 279 285 280 273 270 258 254 251 251 244 243 247 237 239 229 221 225 222 228 228 216 206 217 220 231 238 223
62 357 305 280 295 306 320 324 321 330 324 323 316 307 307 300 299 311 307 290 284 278 270 262 252 249 249 250 246 248 246 227 226 220 226 224 221 225 208 215 225 222 230
78 69 37 9 350 342 342 342 352 347 335 322 309 308 311 307 307 302 310 299 294 295 282 271 265 253 247 252 255 256 252 251 241 228 223 219 214 206 215 220 222 216 217
58 43 32 19 6 356 342 323 322 325 326 322 314 309 303 300 294 298 299 299 285 283 289 281 274 268 274 268 264 257 248 249 248 239 230 223 215 220 218 209 209 219 231
19 17 9 356 333 318 315 319 324 325 321 317 309 301 298 301 300 294 301 294 282 282 280 272 263 269 278 289 283 271 257 249 255 253 231 222 218 212 204 195 183 177 214
2 358 344 333 321 323 329 324 327 327 317 319 315 308 303 302 301 301 300 293 288 293 287 264 264 266 274 280 284 268 252 247 239 234 215 213 203 196 197 207 197 195 221
343 325 323 325 319 308 315 314 312 312 316 319 318 314 307 305 310 306 304 306 298 295 295 288 283 280 276 270 258 252 253 261 237 206 197 194 196 199 207 210 206 216 229
316 316 315 311 308 320 308 306 308 306 303 313 315 312 310 315 311 317 314 313 314 304 293 293 298 288 283 274 267 260 245 242 210 196 183 179 189 207 212 209 208 211 228
300 302 300 302 304 305 309 307 297 301 302 316 321 324 316 322 318 316 324 330 323 313 302 287 271 274 281 281 271 261 247 217 191 175 179 194 205 206 203 184 194 205 215
277 288 296 302 297 292 301 309 315 316 316 312 313 321 318 314 309 318 320 316 316 315 306 303 298 287 274 269 264 225 190 187 175 176 187 212 220 196 192 194 197 199 213
281 286 290 287 293 305 304 313 310 304 304 306 303 310 310 302 307 324 318 311 310 311 304 291 287 278 272 257 230 197 191 183 176 207 212 231 206 196 200 198 205 205 216
281 277 290 307 300 309 308 311 314 311 301 291 291 299 303 294 294 307 313 316 311 305 293 278 282 286 260 235 202 175 183 166 163 180 223 209 206 209 192 201 213 227 228
284 288 292 300 303 315 322 322 309 305 308 304 291 300 309 312 305 311 314 310 312 297 264 288 303 292 264 174 142 145 151 165 199 218 195 227 206 209 199 218 224 232 232
295 294 287 302 322 319 316 309 306 303 306 311 330 322 310 322 324 319 318 319 300 266 3 64 52 43 102 110 127 146 169 204 218 200 176 182 203 216 207 229 227 229 218
307 309 322 313 308 308 307 307 308 317 329 319 320 317 328 333 332 348 9 25 51 72 64 78 77 102 92 100 167 152 170 133 133 150 158 185 205 237 234 253 131 157 180
314 322 317 310 314 311 305 314 327 319 315 322 330 348 342 343 15 53 78 71 68 78 29 36 35 55 82 95 96 101 114 126 117 118 110 106 254 264 249 204 159 204 209
317 311 311 303 305 328 338 331 337 338 335 334 332 333 337 61 90 95 93 85 86 71 61 59 53 50 54 56 61 67 84 100 81 68 77 92 75 164 138 83 88 132 189
321 336 327 330 14 8 7 0 360 360 359 4 11 64 101 102 105 103 81 68 59 53 47 43 43 38 34 26 15 27 33 53 60 70 87 107 105 104 109 115 131 142 140
350 336 336 59 58 48 43 43 40 37 46 67 77 97 97 94 115 95 68 60 57 55 49 42 32 29 27 30 34 33 59 65 76 108 110 99 99 97 107 116 123 137 140
340 351 106 84 86 78 65 71 72 72 76 81 89 94 73 32 71 79 73 66 61 53 44 40 37 36 36 42 49 62 76 94 101 95 98 108 112 118 108 111 121 108 116
356 115 127 128 129 106 83 30 69 71 87 91 80 21 45 76 78 84 71 65 60 51 45 41 37 43 47 53 71 91 104 105 98 97 92 91 89 89 94 97 98 103 121
112 136 139 146 152 40 41 33 29 62 65 50 48 59 69 70 78 80 72 62 59 51 44 41 40 46 54 67 90 98 100 95 87 89 87 74 56 131 121 123 136 130 144